This is the latest recevied weather packets stored in our database for station/object JF2ZGN-13. If no packets are shown the sender has not sent any weather packets the latest 10 day(s).
| Time | Temp. | Humidity | Pressure | Rain* | Wind** | Luminosity | Snow |
|---|---|---|---|---|---|---|---|
| 1777829702 | 15° C | 66% | 895.3 hPa | 6.35 mm | - | - | - |
| 1777829101 | 15° C | 58% | 894.3 hPa | 5.84 mm | - | - | - |
| 1777828501 | 14.44° C | 61% | 895.3 hPa | 5.59 mm | - | - | - |
| 1777827900 | 14.44° C | 63% | 895.8 hPa | 5.08 mm | - | - | - |
| 1777827300 | 13.89° C | 59% | 896.1 hPa | 4.57 mm | - | - | - |
| 1777826699 | 13.33° C | 55% | 896.1 hPa | 4.32 mm | - | - | - |
| 1777826099 | 12.78° C | 56% | 896.7 hPa | 3.81 mm | - | - | - |
| 1777825498 | 12.22° C | 55% | 897 hPa | 3.05 mm | - | - | - |
| 1777824898 | 12.22° C | 54% | 896.2 hPa | 2.79 mm | - | - | - |
| 1777824297 | 11.67° C | 52% | 896.7 hPa | 2.54 mm | - | - | - |
| 1777823697 | 12.22° C | 54% | 897.5 hPa | 2.29 mm | - | - | - |
| 1777823097 | 12.22° C | 60% | 898.1 hPa | 1.52 mm | - | - | - |
| 1777822496 | 12.22° C | 53% | 898 hPa | 1.02 mm | - | - | - |
| 1777821895 | 12.22° C | 54% | 898.3 hPa | 0.51 mm | - | - | - |
| 1777821295 | 12.22° C | 53% | 898.3 hPa | 0.25 mm | - | - | - |
| 1777820694 | 11.67° C | 49% | 898 hPa | 0 mm | - | - | - |
| 1777820093 | 11.67° C | 51% | 898.9 hPa | 3.3 mm | - | - | - |
| 1777819492 | 11.67° C | 51% | 898.6 hPa | 3.05 mm | - | - | - |
| 1777818892 | 11.67° C | 48% | 898.6 hPa | 3.05 mm | - | - | - |
| 1777818292 | 11.67° C | 48% | 897.9 hPa | 3.05 mm | - | - | - |
| 1777817691 | 11.67° C | 53% | 898.7 hPa | 3.05 mm | - | - | - |
| 1777816491 | 11.67° C | 52% | 898.6 hPa | 2.79 mm | - | - | - |
| 1777815890 | 12.22° C | 64% | 899.2 hPa | 2.54 mm | - | - | - |
| 1777815289 | 12.22° C | 60% | 899.4 hPa | 2.03 mm | - | - | - |
| 1777814689 | 12.22° C | 44% | 899.7 hPa | 1.78 mm | - | - | - |
* Rain since midnight (hover to see other rain measurements)
** Current wind speed in m/s (hover to see current wind gust speed)